This is the latest recevied weather packets stored in our database for station/object KA7KDX-4. If no packets are shown the sender has not sent any weather packets the latest 1 day(s).
| Time | Temp. | Humidity | Pressure | Rain* | Wind** | Luminosity | Snow |
|---|---|---|---|---|---|---|---|
| 1778006405 | 16.67° C | 38% | 1004.7 hPa | 0 mm | 3.58 m/s, 192° | - | - |
| 1778006105 | 16.11° C | 38% | 1004.9 hPa | 0 mm | 3.58 m/s, 190° | - | - |
| 1778005805 | 16.11° C | 39% | 1004.8 hPa | 0 mm | 4.02 m/s, 201° | - | - |
| 1778005505 | 16.11° C | 39% | 1004.9 hPa | 0 mm | 3.58 m/s, 196° | - | - |
| 1778005205 | 16.11° C | 39% | 1004.9 hPa | 0 mm | 3.58 m/s, 193° | - | - |
| 1778004906 | 16.11° C | 39% | 1005 hPa | 0 mm | 4.02 m/s, 185° | - | - |
| 1778004606 | 15.56° C | 39% | 1005 hPa | 0 mm | 4.02 m/s, 194° | - | - |
| 1778004306 | 15.56° C | 38% | 1004.9 hPa | 0 mm | 4.47 m/s, 195° | - | - |
| 1778004006 | 15.56° C | 38% | 1005.1 hPa | 0 mm | 3.58 m/s, 192° | - | - |
| 1778003705 | 15.56° C | 38% | 1005.3 hPa | 0 mm | 3.58 m/s, 186° | - | - |
| 1778003405 | 15.56° C | 38% | 1005.3 hPa | 0 mm | 4.02 m/s, 187° | - | - |
| 1778003105 | 15.56° C | 37% | 1005.3 hPa | 0 mm | 4.02 m/s, 184° | - | - |
| 1778002805 | 15.56° C | 37% | 1005.2 hPa | 0 mm | 4.92 m/s, 190° | - | - |
| 1778002505 | 15° C | 37% | 1005.3 hPa | 0 mm | 5.36 m/s, 183° | - | - |
| 1778002206 | 15° C | 38% | 1005.4 hPa | 0 mm | 4.92 m/s, 190° | - | - |
| 1778001906 | 15° C | 38% | 1005.3 hPa | 0 mm | 5.36 m/s, 191° | - | - |
| 1778001606 | 15° C | 38% | 1005.3 hPa | 0 mm | 4.92 m/s, 183° | - | - |
| 1778001305 | 15° C | 39% | 1005.2 hPa | 0 mm | 7.15 m/s, 179° | - | - |
| 1778001005 | 14.44° C | 40% | 1005.3 hPa | 0 mm | 5.81 m/s, 183° | - | - |
| 1778000705 | 14.44° C | 39% | 1005.3 hPa | 0 mm | 5.36 m/s, 181° | - | - |
| 1778000405 | 14.44° C | 39% | 1005.4 hPa | 0 mm | 5.36 m/s, 185° | - | - |
| 1778000105 | 14.44° C | 40% | 1005.5 hPa | 0 mm | 4.92 m/s, 175° | - | - |
| 1777999805 | 13.89° C | 41% | 1005.7 hPa | 0 mm | 5.81 m/s, 172° | - | - |
| 1777999506 | 13.89° C | 41% | 1005.8 hPa | 0 mm | 5.81 m/s, 169° | - | - |
| 1777999206 | 13.33° C | 42% | 1005.9 hPa | 0 mm | 5.36 m/s, 172° | - | - |
* Rain latest hour (hover to see other rain measurements)
** Current wind speed in m/s (hover to see current wind gust speed)